Volver al catálogo

STARLINK-33927

ActivoComunicacionesVLEO
NORAD 64001·PAYLOAD·🇺🇸 United States

Lanzado May 14, 2025 desde Cape Canaveral Space Force Station

Loading…

Próximos Pases (próximas 24 horas)

TLE

ActualizadoSource: CelesTrak SupGP

Época: Sep 15, 2026, 02:32 UTC

1 64001C 25101H   26258.10604167  .00011360  00000+0  41147-3 0  2586
2 64001  43.0023   8.6807 0001524 263.8713 285.7808 15.27571446    17

Sigue STARLINK-33927 en tiempo real con AllMySat

Download on the App Store